QPF
0.00 0.00 0.00 0.00 0.00 0.00 0.00 0.00 0.00 0.00 0.00 0.00 0.00 0.00 0.00 0.00 0.00 0.00 0.00 0.00 0.00 0.00 0.00 0.00 0.00 0.09 0.12 0.05 0.01 0.01 0.03 0.00 0.00 0.00 0.00 0.00 0.00 0.00 0.00 0.00 0.00 0.01 0.01 0.00 0.00
0.00 0.00 0.00 0.00 0.00 0.00 0.00 0.00 0.00 0.00 0.00 0.00 0.00 0.00 0.00 0.00 0.00 0.00 0.00 0.00 0.00 0.00 0.00 0.00 0.00 0.00 0.02 0.00 0.00 0.00 0.00 0.00 0.00 0.00 0.00 0.00 0.00 0.00 0.00 0.00 0.00 0.00 0.00 0.00 0.00
0.00 0.00 0.00 0.00 0.00 0.00 0.00 0.00 0.00 0.00 0.00 0.00 0.00 0.00 0.00 0.00 0.00 0.00 0.00 0.00 0.00 0.00 0.00 0.00 0.00 0.00 0.00 0.00 0.01 0.02 0.01 0.00 0.00 0.00 0.00 0.00 0.00 0.00 0.00 0.00 0.00 0.00 0.00 0.00 0.00
0.00 0.00 0.00 0.00 0.00 0.00 0.00 0.00 0.00 0.00 0.00 0.00 0.00 0.00 0.00 0.00 0.00 0.00 0.00 0.00 0.00 0.00 0.00 0.00 0.00 0.00 0.00 0.02 0.02 0.01 0.01 0.00 0.00 0.00 0.01 0.00 0.00 0.01 0.01 0.01 0.00 0.00 0.00 0.00 0.00
0.00 0.00 0.00 0.00 0.00 0.00 0.00 0.00 0.00 0.00 0.00 0.00 0.00 0.00 0.00 0.00 0.00 0.00 0.00 0.00 0.00 0.00 0.00 0.00 0.00 0.00 0.00 0.01 0.02 0.04 0.01 0.00 0.00 0.00 0.00 0.00 0.01 0.00 0.00 0.00 0.00 0.00 0.00 0.00 0.00
0.00 0.00 0.00 0.00 0.00 0.00 0.00 0.00 0.00 0.00 0.00 0.00 0.00 0.00 0.00 0.00 0.00 0.00 0.00 0.00 0.00 0.00 0.00 0.00 0.00 0.00 0.00 0.00 0.01 0.01 0.03 0.05 0.04 0.02 0.00 0.01 0.00 0.01 0.01 0.00 0.00 0.00 0.00 0.00 0.00
0.00 0.00 0.00 0.00 0.00 0.00 0.00 0.00 0.00 0.00 0.00 0.00 0.00 0.00 0.00 0.00 0.00 0.00 0.00 0.00 0.00 0.00 0.00 0.00 0.00 0.00 0.00 0.00 0.01 0.06 0.06 0.01 0.05 0.08 0.03 0.03 0.00 0.01 0.01 0.00 0.00 0.00 0.00 0.00 0.00
0.00 0.00 0.00 0.00 0.00 0.00 0.00 0.00 0.00 0.00 0.00 0.00 0.00 0.00 0.00 0.00 0.00 0.00 0.00 0.00 0.00 0.00 0.00 0.00 0.00 0.00 0.00 0.00 0.04 0.04 0.06 0.01 0.02 0.03 0.01 0.03 0.01 0.00 0.00 0.00 0.00 0.00 0.00 0.00 0.00
0.00 0.00 0.00 0.00 0.00 0.00 0.00 0.00 0.00 0.00 0.00 0.00 0.00 0.00 0.00 0.00 0.00 0.00 0.00 0.00 0.00 0.00 0.00 0.00 0.00 0.00 0.00 0.00 0.01 0.03 0.02 0.01 0.04 0.00 0.02 0.01 0.01 0.00 0.00 0.00 0.00 0.00 0.00 0.00 0.00
0.00 0.00 0.00 0.00 0.00 0.00 0.00 0.00 0.00 0.00 0.00 0.00 0.00 0.00 0.00 0.00 0.00 0.00 0.00 0.00 0.00 0.00 0.00 0.00 0.00 0.00 0.00 0.00 0.00 0.01 0.00 0.01 0.01 0.01 0.00 0.00 0.00 0.00 0.00 0.00 0.00 0.00 0.00 0.00 0.00
0.00 0.00 0.00 0.00 0.00 0.00 0.00 0.00 0.00 0.00 0.00 0.00 0.00 0.00 0.00 0.00 0.00 0.00 0.00 0.00 0.00 0.00 0.00 0.00 0.00 0.00 0.00 0.00 0.00 0.00 0.02 0.01 0.00 0.00 0.00 0.00 0.00 0.00 0.00 0.00 0.00 0.00 0.00 0.00 0.00
0.00 0.00 0.00 0.00 0.00 0.00 0.00 0.00 0.00 0.00 0.00 0.00 0.00 0.00 0.00 0.00 0.00 0.00 0.00 0.00 0.00 0.00 0.00 0.00 0.00 0.00 0.00 0.00 0.00 0.00 0.00 0.00 0.02 0.01 0.00 0.00 0.00 0.00 0.00 0.00 0.00 0.00 0.00 0.00 0.00
0.00 0.00 0.00 0.00 0.00 0.00 0.00 0.00 0.00 0.00 0.00 0.00 0.00 0.00 0.00 0.00 0.00 0.00 0.00 0.00 0.00 0.00 0.00 0.00 0.00 0.00 0.00 0.00 0.00 0.00 0.00 0.00 0.00 0.00 0.00 0.00 0.00 0.00 0.04 0.05 0.03 0.02 0.01 0.00 0.00
0.00 0.00 0.00 0.00 0.00 0.00 0.00 0.00 0.00 0.00 0.00 0.00 0.00 0.00 0.00 0.00 0.00 0.00 0.00 0.00 0.00 0.00 0.00 0.00 0.00 0.00 0.00 0.00 0.00 0.00 0.00 0.00 0.00 0.00 0.00 0.00 0.00 0.01 0.00 0.01 0.06 0.03 0.04 0.00 0.00
0.00 0.00 0.00 0.00 0.00 0.00 0.00 0.00 0.00 0.00 0.00 0.00 0.00 0.00 0.00 0.00 0.00 0.00 0.00 0.00 0.00 0.00 0.00 0.00 0.00 0.00 0.00 0.00 0.00 0.00 0.00 0.00 0.00 0.00 0.00 0.00 0.00 0.00 0.00 0.00 0.00 0.00 0.01 0.00 0.00
0.00 0.00 0.00 0.00 0.00 0.00 0.00 0.00 0.00 0.00 0.00 0.00 0.00 0.00 0.00 0.00 0.00 0.00 0.00 0.00 0.00 0.00 0.00 0.00 0.00 0.00 0.00 0.00 0.00 0.00 0.00 0.00 0.00 0.00 0.00 0.00 0.00 0.00 0.00 0.00 0.00 0.00 0.00 0.00 0.00
0.00 0.00 0.00 0.00 0.00 0.00 0.00 0.00 0.00 0.00 0.00 0.00 0.00 0.00 0.00 0.00 0.00 0.00 0.00 0.00 0.00 0.00 0.00 0.00 0.00 0.00 0.00 0.00 0.00 0.00 0.00 0.00 0.00 0.00 0.00 0.00 0.00 0.00 0.00 0.00 0.00 0.00 0.00 0.00 0.00
0.00 0.00 0.00 0.00 0.00 0.00 0.00 0.00 0.00 0.00 0.00 0.00 0.00 0.00 0.00 0.00 0.00 0.00 0.00 0.00 0.00 0.00 0.00 0.00 0.00 0.00 0.00 0.00 0.00 0.00 0.00 0.00 0.00 0.00 0.00 0.00 0.00 0.00 0.00 0.00 0.00 0.01 0.04 0.02 0.02
0.00 0.00 0.00 0.00 0.00 0.00 0.00 0.00 0.00 0.00 0.00 0.00 0.00 0.00 0.00 0.00 0.00 0.00 0.00 0.00 0.00 0.00 0.00 0.00 0.00 0.00 0.00 0.00 0.00 0.00 0.00 0.00 0.00 0.00 0.00 0.00 0.00 0.00 0.00 0.00 0.00 0.00 0.01 0.00 0.00
0.00 0.00 0.00 0.00 0.00 0.00 0.00 0.00 0.00 0.00 0.00 0.00 0.00 0.00 0.00 0.00 0.00 0.00 0.00 0.00 0.00 0.00 0.00 0.00 0.00 0.00 0.00 0.00 0.00 0.00 0.00 0.00 0.00 0.00 0.00 0.00 0.00 0.00 0.00 0.00 0.00 0.00 0.01 0.01 0.00
0.00 0.00 0.00 0.00 0.00 0.00 0.00 0.00 0.00 0.00 0.00 0.00 0.00 0.00 0.00 0.00 0.00 0.00 0.00 0.00 0.00 0.00 0.00 0.00 0.00 0.00 0.00 0.00 0.00 0.00 0.00 0.00 0.00 0.00 0.00 0.00 0.00 0.00 0.00 0.00 0.00 0.00 0.00 0.01 0.00
0.00 0.00 0.00 0.00 0.00 0.00 0.00 0.00 0.00 0.00 0.00 0.00 0.00 0.00 0.00 0.00 0.00 0.00 0.00 0.00 0.00 0.00 0.00 0.00 0.00 0.00 0.00 0.00 0.00 0.00 0.00 0.00 0.00 0.00 0.00 0.00 0.00 0.00 0.00 0.00 0.00 0.00 0.00 0.00 0.00
0.00 0.00 0.00 0.00 0.00 0.00 0.00 0.00 0.00 0.00 0.00 0.00 0.00 0.00 0.00 0.00 0.00 0.00 0.00 0.00 0.00 0.00 0.00 0.00 0.00 0.00 0.00 0.00 0.00 0.00 0.00 0.00 0.00 0.00 0.00 0.00 0.00 0.00 0.00 0.00 0.00 0.00 0.00 0.00 0.00
0.00 0.00 0.00 0.00 0.00 0.00 0.00 0.00 0.00 0.00 0.00 0.00 0.00 0.00 0.00 0.00 0.00 0.00 0.00 0.00 0.00 0.00 0.00 0.00 0.00 0.00 0.00 0.00 0.00 0.00 0.00 0.00 0.00 0.00 0.00 0.00 0.00 0.00 0.00 0.00 0.00 0.00 0.00 0.00 0.00
0.00 0.00 0.00 0.00 0.00 0.00 0.00 0.00 0.00 0.00 0.00 0.00 0.00 0.00 0.00 0.00 0.00 0.00 0.00 0.00 0.00 0.00 0.00 0.00 0.00 0.00 0.00 0.00 0.00 0.00 0.00 0.00 0.00 0.00 0.00 0.00 0.00 0.00 0.00 0.00 0.00 0.00 0.00 0.00 0.00
0.00 0.00 0.00 0.00 0.00 0.00 0.00 0.00 0.00 0.00 0.00 0.00 0.00 0.00 0.00 0.00 0.00 0.00 0.00 0.00 0.00 0.00 0.00 0.00 0.00 0.00 0.00 0.00 0.00 0.00 0.00 0.00 0.00 0.00 0.00 0.00 0.00 0.00 0.00 0.00 0.00 0.00 0.00 0.00 0.00
0.00 0.00 0.00 0.00 0.00 0.00 0.00 0.00 0.00 0.00 0.00 0.00 0.00 0.00 0.00 0.00 0.00 0.00 0.00 0.00 0.00 0.00 0.00 0.00 0.00 0.00 0.00 0.00 0.00 0.00 0.00 0.00 0.00 0.00 0.00 0.00 0.00 0.00 0.00 0.00 0.00 0.00 0.01 0.02 0.03
MSLP
1014.99 1014.52 1013.96 1013.59 1013.14 1012.83 1012.43 1011.94 1011.36 1010.91 1010.39 1009.89 1009.45 1008.96 1008.49 1007.88 1006.36 1005.82 1004.61 1002.70 1002.93 1003.38 1004.41 1005.49 1006.15 1007.69 1007.19 1006.57 1007.29 1007.14 1006.86 1003.51 1002.57 1002.66 1002.90 1002.90 1003.11 1003.49 1004.00 1005.18 1005.97 1006.59 1007.53 1009.09 1010.11
1015.06 1014.58 1014.06 1013.52 1013.07 1012.60 1012.27 1011.87 1011.31 1010.74 1010.26 1009.76 1009.26 1008.88 1008.48 1008.04 1006.92 1004.56 1002.27 1002.02 1002.42 1003.19 1004.02 1004.17 1005.14 1005.61 1006.35 1006.06 1005.92 1005.44 1003.41 1001.93 1001.67 1002.02 1002.35 1002.49 1002.83 1003.22 1003.72 1004.76 1005.69 1006.73 1007.89 1009.19 1009.86
1015.08 1014.62 1014.19 1013.60 1013.00 1012.41 1012.07 1011.73 1011.23 1010.64 1010.13 1009.67 1009.22 1008.66 1008.40 1008.16 1006.91 1002.87 1001.84 1002.12 1002.43 1003.11 1002.84 1002.45 1002.46 1002.87 1004.51 1004.62 1004.08 1003.44 1001.64 1001.05 1001.18 1001.38 1001.75 1002.14 1002.48 1002.78 1003.47 1004.19 1004.85 1006.13 1007.72 1008.78 1009.62
1014.93 1014.55 1014.12 1013.63 1013.02 1012.29 1011.73 1011.40 1011.04 1010.53 1009.97 1009.54 1009.13 1008.61 1007.90 1007.83 1005.37 1002.06 1001.79 1002.07 1002.79 1003.42 1002.97 1002.05 1001.49 1001.68 1002.97 1003.29 1002.67 1002.96 1002.13 1000.86 1001.17 1001.34 1001.47 1001.61 1001.78 1002.43 1002.99 1003.42 1004.21 1005.67 1007.01 1008.40 1009.12
1014.69 1014.32 1013.89 1013.39 1012.91 1012.30 1011.69 1011.10 1010.65 1010.30 1009.85 1009.36 1009.06 1008.56 1007.29 1006.62 1003.40 1001.71 1002.07 1002.45 1002.84 1003.23 1002.75 1002.05 1001.38 1001.35 1001.87 1002.46 1003.47 1004.27 1003.09 1003.13 1003.22 1002.37 1001.58 1001.49 1002.22 1002.39 1002.77 1003.21 1004.45 1005.95 1007.00 1008.09 1008.96
1014.52 1013.97 1013.55 1013.11 1012.67 1012.13 1011.63 1011.03 1010.36 1009.90 1009.53 1009.30 1008.94 1008.67 1007.98 1005.28 1001.21 1001.06 1001.65 1002.50 1002.29 1002.35 1002.02 1001.49 1001.12 1000.85 1001.61 1003.57 1005.08 1006.47 1004.68 1004.51 1004.47 1004.47 1002.89 1002.41 1002.55 1002.88 1003.12 1003.55 1004.59 1005.64 1006.85 1007.81 1008.48
1014.37 1013.85 1013.29 1012.84 1012.36 1011.82 1011.30 1010.71 1010.15 1009.54 1009.25 1009.04 1008.88 1008.37 1006.70 1003.17 1000.70 1001.10 1000.94 1001.09 1001.21 1001.39 1001.34 1000.65 1000.45 1000.69 1001.17 1003.85 1004.39 1006.37 1006.26 1006.43 1006.67 1005.39 1004.10 1003.08 1002.77 1003.20 1003.48 1003.84 1004.65 1005.49 1006.42 1007.19 1007.70
1014.11 1013.59 1013.08 1012.48 1011.98 1011.47 1010.85 1010.23 1009.70 1009.20 1008.89 1008.74 1008.57 1007.95 1005.31 1000.98 1000.52 1000.35 1000.21 1000.24 1000.13 1000.29 1000.52 1000.01 999.94 1000.49 1001.91 1004.87 1006.23 1007.33 1007.50 1006.28 1005.36 1005.06 1004.10 1003.94 1003.27 1002.83 1003.23 1003.82 1004.56 1005.19 1005.87 1006.53 1006.94
1013.75 1013.08 1012.56 1012.06 1011.62 1011.12 1010.40 1009.61 1008.98 1008.51 1008.29 1008.37 1008.28 1007.24 1003.74 1000.35 1000.22 999.75 999.80 999.96 999.93 999.79 999.75 999.66 999.74 1000.56 1002.07 1004.89 1006.92 1007.52 1006.22 1005.92 1004.85 1003.24 1003.93 1004.33 1003.40 1002.50 1002.89 1003.40 1004.10 1004.91 1005.50 1006.07 1006.56
1013.38 1012.77 1012.23 1011.71 1011.23 1010.74 1009.85 1008.68 1008.09 1007.94 1007.46 1007.57 1006.96 1006.14 1002.60 1000.34 999.68 999.45 999.23 999.54 999.94 999.91 999.67 999.70 1000.15 1000.50 1001.27 1002.99 1005.45 1006.30 1005.63 1005.37 1005.03 1002.38 1002.84 1003.42 1003.12 1002.36 1002.53 1003.06 1003.81 1004.32 1005.15 1005.78 1006.12
1013.04 1012.38 1011.79 1011.28 1010.94 1010.64 1009.53 1007.97 1008.13 1007.72 1006.70 1005.18 1004.11 1002.63 1000.67 1000.05 999.35 999.42 999.33 999.52 999.81 1000.12 1000.49 1000.02 1000.68 1000.79 1000.84 1001.13 1002.07 1003.53 1004.33 1004.95 1004.02 1002.56 1002.98 1002.04 1002.12 1001.62 1002.12 1002.92 1003.32 1004.14 1004.55 1005.21 1005.62
1012.70 1012.02 1011.37 1010.82 1010.47 1010.40 1010.45 1008.28 1005.67 1004.90 1004.41 1003.34 1002.60 1001.87 1000.71 1000.06 999.88 999.60 999.53 1000.09 1000.10 1000.60 1000.72 1000.81 1000.54 1000.12 999.86 999.70 1001.30 1002.36 1002.67 1002.51 1002.82 1001.74 1001.28 1000.27 1000.83 1001.16 1001.69 1002.32 1003.31 1003.85 1004.45 1004.94 1005.16
1012.27 1011.61 1011.04 1010.46 1009.90 1009.82 1008.34 1006.17 1004.44 1003.94 1003.85 1001.73 1001.14 1000.60 1000.06 1000.10 999.94 999.42 999.32 999.69 1000.18 1000.35 1000.69 1000.75 1000.22 999.53 999.32 999.18 1000.71 1001.05 1000.95 1000.86 1000.90 999.72 999.09 999.17 1000.57 1001.70 1003.32 1003.66 1003.12 1003.53 1003.86 1003.66 1004.10
1012.01 1011.45 1010.85 1010.11 1009.88 1007.74 1006.43 1004.49 1004.10 1003.83 1003.37 1000.92 1000.28 999.44 999.35 999.63 999.66 998.71 998.86 999.54 999.80 1000.10 1000.28 1000.12 999.44 999.12 998.82 998.80 998.98 999.53 999.31 998.81 998.76 998.99 999.36 999.37 1001.59 1002.99 1002.99 1003.13 1001.93 1000.83 1001.82 1002.53 1002.87
1011.70 1011.16 1010.75 1010.69 1009.84 1007.44 1004.96 1004.27 1004.01 1003.97 1002.65 1000.18 999.44 998.94 998.83 999.67 998.94 998.58 998.46 998.71 999.57 999.99 1000.13 999.86 999.12 998.71 998.48 998.13 997.86 998.05 997.76 998.30 998.87 999.51 999.87 1000.05 1001.33 1003.11 1003.49 1003.65 1002.89 1002.26 1002.36 1002.01 1001.86
1011.47 1011.01 1010.51 1010.14 1009.30 1006.21 1004.79 1004.20 1003.96 1003.94 1001.05 999.41 998.90 998.92 999.20 999.21 999.03 998.35 998.78 999.04 999.51 1000.06 999.91 999.70 998.61 998.16 997.94 997.77 997.75 997.97 998.27 998.74 999.43 1000.21 1000.97 1000.71 1001.03 1002.57 1003.04 1002.48 1002.45 1001.88 1001.56 1000.83 1001.41
1010.87 1010.55 1010.65 1009.06 1007.05 1005.04 1004.50 1004.20 1004.20 1002.62 999.75 999.44 999.00 998.58 998.69 999.04 998.86 998.88 999.01 999.45 1000.05 1000.52 1000.36 999.86 998.98 997.92 997.56 997.83 997.91 998.46 999.62 1000.48 1001.28 1001.33 1001.49 1000.26 1000.32 999.67 1000.69 1000.76 1000.45 1000.78 1001.43 1001.58 1000.49
1010.05 1009.85 1008.43 1007.50 1005.95 1005.34 1004.88 1004.67 1003.44 1000.78 1000.05 999.64 999.16 998.72 998.58 998.58 998.53 998.76 998.91 999.64 999.81 1000.33 1000.63 1000.58 999.56 998.55 997.94 997.61 998.05 998.89 999.81 1001.26 1002.00 1002.19 1001.63 1000.29 999.95 999.25 998.48 998.71 999.20 999.74 998.85 997.96 1000.65
1009.02 1007.96 1007.30 1005.28 1005.45 1005.71 1005.55 1004.44 1002.64 1001.40 1000.63 999.94 999.40 998.98 998.79 998.80 999.00 998.82 999.04 999.55 1000.01 1000.38 1001.00 1000.64 999.85 998.75 997.92 997.45 997.56 998.61 999.45 1000.26 1001.59 1001.82 1001.96 1000.98 1000.36 999.14 999.03 998.86 998.46 998.81 997.53 997.46 999.07
1009.35 1007.53 1005.31 1003.50 1004.15 1004.76 1004.95 1003.63 1002.09 1001.47 1000.97 1000.45 1000.14 999.49 999.71 999.47 999.35 999.30 999.16 999.85 1000.23 1000.53 1000.78 1001.17 1000.95 999.74 998.75 997.84 997.69 998.17 999.11 1000.36 1001.68 1003.05 1002.98 1001.55 1000.00 999.18 998.90 998.67 998.67 998.13 997.83 997.85 998.52
1009.25 1006.84 1003.28 1002.71 1003.09 1004.17 1004.32 1002.72 1001.84 1001.48 1001.34 1001.01 1000.84 1000.66 1000.44 1000.42 1000.24 1000.36 1000.27 1000.81 1000.83 1001.29 1001.40 1001.96 1002.10 1001.30 999.93 999.47 999.50 999.01 999.56 1000.65 1001.68 1002.89 1003.37 1002.50 1000.94 998.39 997.81 997.54 997.20 996.11 997.71 997.90 996.66
1009.16 1006.46 1002.95 1002.65 1003.40 1003.24 1003.04 1002.55 1002.31 1001.59 1001.34 1001.27 1001.19 1001.27 1001.37 1001.41 1001.40 1001.23 1001.24 1001.30 1001.54 1001.97 1002.74 1003.15 1003.03 1002.81 1001.45 1000.52 999.79 999.76 1000.28 1000.86 1002.40 1003.07 1002.67 1001.76 999.93 997.95 997.59 996.77 997.04 996.54 996.61 996.83 997.13
1010.22 1006.31 1002.77 1002.75 1003.45 1003.22 1002.51 1002.26 1002.13 1001.98 1001.94 1001.84 1001.85 1002.05 1002.21 1002.41 1002.54 1002.11 1001.75 1001.45 1001.63 1002.24 1003.29 1003.78 1004.12 1004.20 1002.79 1001.35 1000.68 1000.90 1000.87 1001.08 1001.49 1001.84 1002.60 1002.10 1000.22 998.66 997.75 997.35 997.39 997.46 997.03 996.94 996.98
1010.64 1006.95 1004.27 1003.59 1003.43 1003.68 1003.46 1002.82 1002.32 1002.31 1002.31 1002.60 1002.84 1002.79 1002.95 1003.19 1002.93 1002.97 1002.45 1001.97 1002.05 1002.65 1003.35 1003.85 1004.77 1005.20 1004.78 1003.82 1002.74 1001.93 1001.40 1001.25 1001.67 1002.28 1002.47 1001.78 1000.72 999.29 999.03 998.45 998.36 998.53 998.55 998.47 998.26
1010.15 1008.22 1007.57 1005.99 1005.19 1004.69 1004.36 1003.90 1003.25 1002.80 1002.72 1002.99 1003.33 1003.43 1003.57 1004.01 1004.13 1004.05 1003.70 1003.40 1003.24 1003.63 1003.77 1004.09 1005.05 1005.08 1004.65 1003.74 1002.93 1002.37 1001.77 1001.39 1001.56 1001.64 1002.04 1001.55 1001.28 1000.08 1000.00 999.51 998.94 998.89 999.13 999.37 999.46
1011.71 1010.72 1009.20 1007.99 1006.36 1005.43 1004.82 1004.46 1003.89 1003.80 1004.10 1004.02 1004.36 1004.22 1004.38 1004.88 1005.44 1005.48 1005.29 1005.14 1004.72 1004.29 1004.57 1004.73 1005.31 1005.36 1005.15 1004.37 1003.65 1002.85 1001.93 1001.28 1001.00 1001.03 1001.08 1001.27 1001.08 1001.56 1000.81 1000.85 1001.87 1002.50 1000.88 1000.36 1000.06
1013.28 1012.10 1010.88 1008.82 1007.45 1006.40 1005.70 1005.25 1004.93 1004.89 1004.84 1004.71 1004.94 1005.03 1005.17 1005.30 1005.54 1005.67 1005.62 1005.42 1005.25 1005.22 1005.32 1005.53 1005.75 1006.19 1005.98 1005.09 1004.21 1003.26 1001.88 1001.25 1000.88 1000.46 1000.91 1001.91 1002.37 1001.92 1002.85 1003.97 1004.04 1003.48 1003.77 1004.31 1004.21
Thickness
5791 5795 5800 5803 5806 5808 5811 5815 5820 5824 5828 5832 5837 5841 5847 5853 5866 5871 5870 5895 5894 5890 5879 5866 5857 5837 5838 5828 5833 5830 5788 5811 5818 5818 5820 5837 5827 5837 5840 5818 5816 5815 5806 5800 5799
5788 5793 5797 5802 5805 5809 5812 5814 5819 5825 5829 5833 5838 5842 5846 5851 5860 5870 5901 5905 5903 5893 5878 5869 5854 5852 5835 5840 5839 5833 5824 5836 5851 5847 5833 5842 5836 5833 5825 5816 5811 5812 5811 5805 5802
5785 5789 5793 5798 5803 5808 5811 5815 5819 5824 5829 5833 5837 5843 5846 5849 5852 5879 5904 5904 5903 5896 5893 5891 5889 5871 5846 5852 5857 5848 5846 5864 5863 5863 5858 5846 5840 5846 5826 5811 5820 5807 5804 5805 5801
5783 5786 5790 5795 5800 5807 5812 5815 5818 5823 5828 5832 5837 5842 5849 5849 5830 5894 5904 5902 5898 5894 5890 5887 5885 5862 5848 5843 5867 5842 5863 5877 5873 5871 5861 5847 5853 5841 5836 5831 5842 5830 5819 5808 5802
5781 5784 5788 5793 5797 5803 5808 5814 5819 5822 5827 5831 5835 5840 5852 5844 5860 5902 5901 5898 5896 5889 5882 5878 5874 5867 5853 5858 5850 5833 5835 5852 5856 5866 5871 5867 5847 5846 5842 5850 5845 5831 5822 5811 5805
5778 5783 5787 5791 5795 5801 5805 5811 5817 5822 5826 5829 5832 5837 5839 5828 5904 5907 5904 5894 5893 5888 5884 5886 5877 5881 5866 5840 5828 5816 5844 5839 5843 5830 5862 5851 5850 5848 5848 5853 5840 5832 5821 5815 5810
5775 5779 5784 5788 5793 5798 5803 5809 5815 5821 5824 5827 5829 5835 5839 5848 5905 5906 5906 5899 5900 5893 5881 5898 5898 5876 5876 5832 5849 5832 5821 5826 5817 5832 5841 5856 5844 5838 5851 5850 5838 5830 5824 5820 5816
5772 5776 5780 5786 5791 5796 5802 5808 5814 5819 5822 5825 5827 5832 5827 5897 5905 5903 5907 5900 5907 5905 5898 5908 5908 5886 5865 5842 5828 5816 5809 5798 5836 5842 5848 5843 5807 5851 5859 5849 5837 5835 5831 5825 5821
5772 5777 5780 5785 5789 5793 5800 5808 5815 5820 5823 5823 5824 5827 5829 5900 5885 5900 5905 5889 5896 5900 5902 5908 5900 5877 5867 5822 5794 5797 5802 5810 5823 5857 5844 5833 5821 5858 5865 5857 5844 5839 5835 5829 5823
5775 5778 5781 5785 5789 5793 5801 5812 5817 5820 5825 5825 5830 5815 5847 5855 5882 5895 5905 5899 5884 5884 5879 5877 5867 5851 5854 5832 5779 5779 5798 5811 5800 5848 5848 5833 5831 5859 5867 5861 5852 5850 5841 5832 5827
5778 5781 5784 5787 5790 5792 5802 5817 5808 5804 5816 5817 5827 5836 5858 5875 5896 5883 5893 5884 5882 5869 5837 5861 5832 5820 5843 5856 5844 5829 5820 5812 5821 5844 5835 5837 5846 5862 5866 5861 5858 5851 5847 5838 5833
5781 5784 5788 5791 5793 5794 5793 5804 5820 5826 5803 5836 5839 5843 5861 5872 5848 5865 5886 5854 5852 5831 5846 5834 5817 5854 5872 5874 5847 5834 5828 5827 5827 5848 5840 5859 5858 5869 5870 5866 5859 5853 5848 5843 5840
5785 5789 5792 5795 5798 5799 5809 5819 5843 5842 5801 5830 5844 5844 5850 5859 5840 5848 5868 5856 5840 5833 5834 5819 5838 5868 5867 5864 5839 5835 5833 5842 5834 5856 5883 5875 5849 5846 5845 5847 5859 5856 5858 5858 5851
5788 5791 5794 5799 5799 5818 5816 5840 5845 5842 5779 5815 5828 5844 5855 5855 5830 5872 5875 5857 5844 5826 5836 5833 5860 5857 5855 5852 5865 5836 5869 5876 5872 5854 5828 5873 5802 5823 5834 5837 5862 5882 5868 5865 5863
5791 5794 5796 5795 5798 5808 5830 5844 5844 5827 5745 5825 5833 5872 5862 5835 5845 5852 5878 5862 5829 5830 5837 5823 5842 5844 5843 5856 5875 5853 5882 5871 5867 5846 5841 5852 5816 5818 5835 5824 5841 5856 5860 5869 5871
5793 5795 5799 5799 5803 5825 5839 5843 5830 5770 5761 5818 5840 5832 5829 5836 5839 5857 5854 5864 5854 5831 5836 5834 5865 5861 5856 5869 5871 5873 5860 5856 5854 5835 5790 5831 5828 5807 5814 5837 5848 5854 5864 5880 5873
5799 5800 5798 5807 5813 5839 5842 5823 5771 5751 5837 5816 5821 5836 5827 5821 5829 5834 5828 5820 5803 5794 5796 5827 5840 5865 5875 5852 5864 5856 5824 5775 5775 5776 5777 5841 5832 5840 5851 5856 5866 5863 5859 5862 5879
5806 5807 5817 5822 5832 5836 5828 5791 5761 5815 5813 5838 5836 5837 5828 5839 5836 5835 5826 5806 5827 5817 5797 5785 5782 5841 5865 5849 5833 5832 5825 5770 5763 5761 5785 5836 5817 5835 5879 5884 5878 5874 5875 5889 5859
5816 5824 5824 5840 5838 5831 5802 5767 5783 5801 5821 5820 5826 5820 5825 5836 5834 5835 5830 5818 5824 5821 5791 5782 5791 5849 5859 5865 5855 5831 5808 5835 5799 5812 5785 5810 5835 5864 5870 5866 5874 5866 5880 5882 5871
5812 5820 5829 5857 5848 5829 5791 5778 5804 5823 5825 5822 5796 5821 5802 5819 5821 5819 5825 5831 5821 5828 5829 5810 5776 5828 5845 5860 5862 5849 5851 5793 5784 5762 5759 5791 5812 5820 5846 5853 5863 5867 5871 5872 5873
5812 5808 5848 5863 5851 5811 5774 5799 5815 5828 5826 5811 5801 5801 5808 5803 5812 5807 5808 5811 5822 5814 5822 5804 5787 5793 5828 5825 5812 5821 5812 5818 5804 5788 5760 5756 5785 5867 5868 5863 5866 5887 5872 5864 5880
5808 5792 5852 5858 5799 5804 5792 5809 5810 5819 5829 5819 5819 5810 5800 5802 5796 5798 5794 5803 5819 5812 5786 5794 5782 5760 5789 5828 5838 5832 5816 5813 5765 5772 5786 5782 5798 5881 5872 5881 5870 5876 5878 5876 5884
5788 5807 5852 5845 5779 5789 5814 5813 5817 5809 5808 5807 5803 5809 5808 5795 5780 5794 5800 5817 5817 5805 5783 5787 5756 5733 5760 5792 5817 5804 5814 5813 5810 5804 5781 5770 5788 5862 5869 5871 5872 5866 5877 5880 5891
5784 5783 5814 5820 5817 5798 5792 5797 5799 5817 5807 5808 5798 5804 5795 5783 5794 5784 5794 5812 5814 5801 5797 5791 5763 5745 5725 5752 5778 5775 5797 5807 5798 5769 5773 5785 5797 5833 5845 5855 5862 5862 5864 5865 5872
5787 5783 5784 5770 5786 5791 5792 5788 5788 5787 5805 5805 5791 5790 5783 5767 5769 5768 5783 5788 5798 5788 5794 5784 5749 5760 5766 5778 5785 5781 5788 5796 5786 5791 5775 5788 5795 5824 5833 5844 5854 5862 5861 5860 5860
5758 5757 5771 5768 5786 5785 5783 5781 5783 5784 5781 5776 5769 5781 5779 5764 5759 5752 5761 5763 5768 5781 5774 5777 5744 5756 5751 5770 5772 5767 5782 5790 5797 5801 5801 5802 5803 5813 5832 5826 5813 5810 5845 5851 5857
5753 5757 5754 5762 5770 5770 5767 5773 5775 5779 5782 5783 5775 5769 5762 5766 5775 5775 5775 5774 5772 5763 5758 5755 5745 5734 5724 5752 5754 5742 5771 5782 5789 5803 5801 5779 5791 5808 5798 5791 5795 5806 5803 5789 5788